LEALLEIB

Guest
Details From LEAL - Alicante
To LEIB - Ibiza
Flight Number -
Tags generated
Created
Modified
Stats Distance 97 nm / 180 km
Max Altitude 1,600 ft / 488 m
Waypoints 3
Social Downloads 2
Likes 0
Share VATSIM

Download

Looking for another format? Having issues loading an existing format? Contact us
Advertisement - Login to hide

Notes

Basic altitude profile: - Ascent Rate: 2500ft/min - Ascent Speed: 250kts - Cruise Altitude: 1600ft - Cruise Speed: 300kts - Descent Rate: 1500ft/min - Descent Speed: 250kts

Route

LEAL BRUNO LEIB

ID Type Via Altitude Latitude Longitude Leg Dist Tot Dist Heading (true) Name
O LEAL APT - 0 ft / 0 m 38.28217˚ -0.55816˚ - 0 nm - Alicante
BRUNO FIX - 1,600 ft / 488 m 38.60830˚ 0.48333˚ 52 nm 52 nm 68° / 69° -
O LEIB APT - 0 ft / 0 m 38.87287˚ 1.37304˚ 44 nm 97 nm 69° / 69° Ibiza

Altitude Profile

Advertisement - Login to hide

LEAL

Details ICAO LEAL (ALC)
Name Alicante
Region Spain
Timezone Europe/Madrid (UTC+1.0)
Stats Elevation 141 ft / 43 m (AMSL)
Location 38.282169° -0.558157°
Runways 1
Magnetic Variation 0.183° E

METAR

LEAL 121930Z 29006KT CAVOK 09/01 Q1021 NOSIG

Decode

TAF

TAF TAF LEAL 121700Z 1218/1318 31008KT CAVOK TX17/1312Z TN04/1306Z TEMPO 1218/1220 VRB04KT TEMPO 1313/1318 24010KT

Decode

Departure Runways

ID Width Length Bearing (true) Bearing (mag) Surface Threshold Offset Overrun Length
10 148 ft / 45 m 9,799 ft / 2,987 m 100.07° 99.89° Asphalt 0 ft / 0 m 164 ft / 50 m
28 148 ft / 45 m 9,799 ft / 2,987 m 280.09° 279.91° Asphalt 0 ft / 0 m 197 ft / 60 m

LEIB

Details ICAO LEIB (IBZ)
Name Ibiza
Region Spain
Timezone Europe/Madrid (UTC+1.0)
Stats Elevation 20 ft / 6 m (AMSL)
Location 38.872871° 1.373045°
Runways 1
Magnetic Variation 0.662° E

METAR

LEIB 121930Z 33004KT CAVOK 07/04 Q1020 NOSIG

Decode

TAF

TAF LEIB 121400Z 1215/1315 33005KT 9999 FEW025 TX16/1309Z TN07/1306Z BECMG 1310/1312 24010KT

Decode

Destination Runways

ID Width Length Bearing (true) Bearing (mag) Surface Threshold Offset Overrun Length
06 148 ft / 45 m 9,153 ft / 2,790 m 61.85° 61.19° Asphalt 0 ft / 0 m 213 ft / 65 m
24 148 ft / 45 m 9,153 ft / 2,790 m 241.86° 241.20° Asphalt 0 ft / 0 m 197 ft / 60 m

Approach Navaids

Runway Type Ident Frequency Range Bearing (true) Bearing (mag) Slope Elevation
06 Localiser IBI 111.10 MHz 18 nm / 33 km 62.00° 61.34° - 20 ft / 6 m (AMSL)
06 Glidescope IBI 111.10 MHz 10 nm / 19 km 62.00° 61.34° 3.00° 20 ft / 6 m (AMSL)
06 DME IBI 111.10 MHz 18 nm / 33 km - - - 20 ft / 6 m (AMSL)
24 Localiser IBZ 109.50 MHz 18 nm / 33 km 241.81° 241.15° - 15 ft / 5 m (AMSL)
24 Glidescope IBZ 109.50 MHz 10 nm / 19 km 241.86° 241.19° 3.00° 69 ft / 21 m (AMSL)
24 DME IBZ 109.50 MHz 18 nm / 33 km - - - 69 ft / 21 m (AMSL)

Popular Alternatives